[[{"header":{"parameterUnit":"m.s-1","parameterCategory":1,"la1":30.2991,"la2":30.254,"lo1":-89.0895,"lo2":-89.0444,"dy":0.0017,"dx":0.0017,"nx":28,"ny":28,"refTime":"2024-02-16T03:00:00:Z","depth":0,"parameterNumber":2,"parameterNumberName":"U-component_of_WINDS"},"data":[0,0,0,0,0,0,0,0,0,0,0,0,0,0,0,0,0,0,0,0,0,0,0,0,0,0,0,0,0,0,0,0,0,0,0,0,0,0,0,0,0,0,0,0,0,0,0,0,0,0,0,0,0,0,0,0,0,0,-1.7702,-1.7704,0,-1.7882,-1.7884,-1.7886,-1.7885,-1.7882,-1.788,-1.7878,-1.8065,-1.8072,-1.808,0,0,0,0,0,0,0,0,0,0,0,0,0,-1.7359,-1.7365,-1.7702,-1.7704,-1.7706,-1.7882,-1.7884,-1.7887,-1.7885,-1.7882,-1.7879,-1.7877,-1.8063,-1.8072,-1.808,0,0,0,0,0,0,0,0,0,0,0,0,0,-1.7521,-1.7368,-1.7701,-1.7727,-1.7731,-1.7881,-1.7884,-1.7887,-1.7886,-1.7882,-1.7879,-1.7875,-1.806,-1.8071,-1.8081,-1.822,0,0,-1.8114,-1.8119,0,0,0,0,0,0,0,0,-1.7511,-1.7533,-1.7721,-1.7725,-1.773,-1.7857,-1.7832,-1.7999,-1.7887,-1.7827,-1.7878,-1.7874,-1.7999,-1.8015,-1.8057,-1.8228,-1.8236,-1.8115,-1.8122,-1.8127,-1.813,0,0,0,0,0,0,0,-1.75,-1.7525,-1.7773,-1.7723,-1.7729,-1.773,-1.7749,-1.7864,-1.7931,-1.7832,-1.7832,-1.7853,-1.8001,-1.8046,-1.8061,-1.8239,-1.8115,-1.8125,-1.8131,-1.8136,-1.8533,-1.8537,0,0,0,0,0,0,-1.7483,-1.7516,-1.7767,-1.7779,-1.761,-1.7739,-1.776,-1.782,-1.793,-1.7943,-1.7856,-1.7853,-1.8029,-1.8048,-1.8067,-1.8238,-1.8126,-1.8137,-1.8143,-1.8529,-1.8534,-1.8539,0,0,0,0,0,0,-1.7476,-1.7506,-1.776,-1.7648,-1.768,-1.7748,-1.7816,-1.7825,-1.787,-1.7948,-1.796,-1.789,-1.8027,-1.8052,-1.8182,-1.8244,-1.8142,-1.8151,-1.8525,-1.8531,-1.8537,-1.8578,0,0,0,0,0,0,-1.7466,-1.7503,-1.7556,-1.7649,-1.7686,-1.7871,-1.782,-1.7832,-1.7889,-1.7886,-1.7983,-1.7996,-1.8026,-1.8165,-1.8192,-1.8257,-1.816,-1.8519,-1.8527,-1.8535,-1.8571,-1.8585,-1.8596,0,0,0,0,0,-1.7454,-1.7561,-1.7559,-1.7589,-1.7753,-1.7874,-1.7896,-1.7928,-1.7894,-1.7948,-1.7997,-1.7992,-1.8232,-1.8179,-1.8209,-1.8278,-1.8516,-1.8525,-1.8534,-1.8566,-1.8582,-1.8596,0,0,0,0,0,0,-1.7476,-1.7574,-1.7572,-1.7712,-1.7785,-1.7874,-1.7944,-1.7944,-1.8029,-1.8023,-1.806,-1.8082,-1.8212,-1.8257,-1.8196,-1.8417,-1.837,-1.8385,-1.8383,-1.8399,-1.8412,-1.8399,-1.8169,0,0,0,0,0,-1.7496,-1.7586,-1.7667,-1.7783,-1.7819,-1.7875,-1.7929,-1.7947,-1.8024,-1.8056,-1.8115,-1.8191,-1.8283,-1.8343,-1.8432,-1.8576,-1.8598,-1.8639,-1.8651,-1.8661,-1.8675,-1.8755,-1.8775,-1.8569,-1.8569,-1.8569,0,0,-1.7541,-1.7606,-1.766,-1.7789,-1.7847,-1.794,-1.7901,-1.8001,-1.807,-1.8071,-1.8197,-1.8243,-1.833,-1.8467,-1.8531,-1.8509,-1.8736,-1.8672,-1.868,-1.8689,-1.8767,-1.8786,-1.8803,-1.8575,-1.8574,-1.8573,0,0,-1.767,-1.7727,-1.7831,-1.7889,-1.7978,-1.8014,-1.8038,-1.8127,-1.8157,-1.8283,-1.8286,-1.8369,-1.8527,-1.8589,-1.8642,-1.8792,-1.8791,-1.882,-1.8886,-1.8964,-1.898,-1.8994,-1.905,-1.9069,-1.8833,-1.8833,-1.8833,0,-1.7715,-1.7854,-1.7884,-1.7984,-1.8041,-1.8044,-1.8149,-1.8205,-1.8318,-1.8358,-1.8331,-1.8529,-1.8588,-1.8741,-1.8777,-1.8818,-1.8849,-1.8811,-1.8975,-1.899,-1.9004,-1.9057,-1.9078,-1.8836,-1.8836,-1.8835,-1.8835,0,-1.7906,-1.8002,-1.8075,-1.8183,-1.8248,-1.835,-1.8395,-1.8457,-1.8469,-1.8508,-1.8637,-1.8707,-1.8811,-1.8847,-1.8861,-1.9002,-1.8986,-1.8966,-1.892,-1.9026,-1.9077,-1.9097,-1.884,-1.8839,-1.8838,-1.8838,0,0,-1.8057,-1.8178,-1.8205,-1.8254,-1.8351,-1.8426,-1.8528,-1.8628,-1.8681,-1.8758,-1.8846,-1.8978,-1.8961,-1.902,-1.904,-1.9108,-1.9224,-1.908,-1.9083,-1.9106,-1.9386,-1.9401,-1.9424,-1.9222,-1.9226,-1.9229,-1.9379,0,-1.8198,-1.8379,-1.8408,-1.8567,-1.8657,-1.866,-1.8749,-1.8818,-1.8856,-1.8939,-1.8981,-1.9075,-1.9044,-1.908,-1.9147,-1.9196,-1.9281,-1.9185,-1.9306,-1.931,-1.9287,-1.9451,-1.9468,-1.9606,-1.9399,-1.9402,-1.9405,0,-1.8388,-1.8469,-1.8637,-1.8721,-1.876,-1.884,-1.8933,-1.9011,-1.909,-1.9113,-1.9178,-1.9189,-1.9296,-1.9242,-1.939,-1.9324,-1.9374,-1.9405,-1.9411,-1.9427,-1.9366,-1.9472,-1.9651,-1.9672,-1.9436,-1.9433,-1.9431,0,-1.8484,-1.8635,-1.8755,-1.8797,-1.8897,-1.8953,-1.8998,-1.9072,-1.9131,-1.9212,-1.9251,-1.9344,-1.9396,-1.9468,-1.9504,-1.9461,-1.965,-1.9599,-1.9674,-1.9673,-1.9716,-1.9714,-1.9907,-1.9744,-1.9744,-1.9743,-1.9743,0,-1.8641,-1.8744,-1.88,-1.8874,-1.899,-1.9021,-1.9135,-1.9178,-1.9244,-1.9327,-1.9335,-1.9413,-1.9454,-1.9539,-1.9568,-1.9687,-1.9709,-1.9732,-1.9739,-1.9733,-1.9731,-1.9769,-1.9762,-1.9749,-1.9748,-1.9747,-1.9746,0,-1.8769,-1.881,-1.8942,-1.9025,-1.9048,-1.913,-1.9202,-1.9275,-1.9311,-1.9416,-1.9443,-1.9501,-1.9601,-1.9643,-1.9766,-1.9785,-1.9922,-1.992,-1.9895,-1.9898,-1.9971,-1.9965,-2.0199,-2.0232,-2.0045,-2.0046,-2.0048,0,-1.8867,-1.8947,-1.9038,-1.9094,-1.914,-1.9229,-1.9288,-1.9321,-1.9383,-1.9477,-1.9538,-1.9637,-1.9719,-1.9878,-1.9932,-2.0025,-2.0028,-2.0103,-2.0042,-2.0034,-2.0032,-2.0028,-2.0036,-2.0116,-2.0117,-2.0119,-2.012,0,-1.9039,-1.9055,-1.9139,-1.9231,-1.93,-1.9374,-1.9446,-1.9491,-1.9536,-1.9604,-1.9705,-1.9768,-1.9892,-1.9991,-2.0088,-2.0134,-2.0136,-2.0138,-2.0161,-2.0157,-2.0141,-2.0153,-1.9929,-2.0134,-2.0132,-2.0131,-2.0131,-2.013,-1.9157,-1.9228,-1.9303,-1.9397,-1.9454,-1.952,-1.9593,-1.9638,-1.9722,-1.9826,-1.9839,-1.9948,-2.0024,-2.0153,-2.0203,-2.0289,-2.027,-2.0303,-2.0311,-2.032,-2.0325,-2.0124,-2.0306,-2.0306,-2.0306,-2.0305,-2.0305,0,-1.9331,-1.9378,-1.9464,-1.9564,-1.9637,-1.9629,-1.9708,-1.9771,-1.9866,-1.9936,-2.0015,-2.0131,-2.0227,-2.0287,-2.0383,-2.044,-2.0443,-2.0465,-2.0462,-2.0473,-2.0336,-2.0307,-2.0461,-2.0461,-2.0461,-2.046,-2.046,-2.046,-1.943,-1.9549,-1.9574,-1.9722,-1.9769,-1.9875,-1.9921,-1.9983,-2.0039,-2.0168,-2.0247,-2.0285,-2.0351,-2.0452,-2.0539,-2.0554,-2.059,-2.0613,-2.0628,-2.0499,-2.0483,-2.0468,-2.0441,-2.062,-2.0621,-2.0759,-2.076,-2.0761]},{"header":{"parameterUnit":"m.s-1","parameterCategory":1,"la1":30.2991,"la2":30.254,"lo1":-89.0895,"lo2":-89.0444,"dy":0.0017,"dx":0.0017,"nx":28,"ny":28,"refTime":"2024-02-16T03:00:00:Z","depth":0,"parameterNumber":3,"parameterNumberName":"V-component_of_WINDS"},"data":[0,0,0,0,0,0,0,0,0,0,0,0,0,0,0,0,0,0,0,0,0,0,0,0,0,0,0,0,0,0,0,0,0,0,0,0,0,0,0,0,0,0,0,0,0,0,0,0,0,0,0,0,0,0,0,0,0,0,-8.2075,-8.2076,0,-8.2185,-8.2186,-8.2187,-8.2083,-8.2079,-8.2075,-8.2071,-8.2178,-8.2184,-8.2191,0,0,0,0,0,0,0,0,0,0,0,0,0,-8.1767,-8.1773,-8.2075,-8.2076,-8.2077,-8.2185,-8.2186,-8.2188,-8.2084,-8.2079,-8.2074,-8.2069,-8.2176,-8.2183,-8.2192,0,0,0,0,0,0,0,0,0,0,0,0,0,-8.1891,-8.1776,-8.2074,-8.2039,-8.2037,-8.2184,-8.2186,-8.2188,-8.2085,-8.2079,-8.2073,-8.2067,-8.2173,-8.2183,-8.2193,-8.2379,0,0,-8.2223,-8.2228,0,0,0,0,0,0,0,0,-8.1884,-8.1903,-8.2043,-8.2041,-8.2039,-8.2114,-8.2117,-8.2252,-8.2087,-8.2066,-8.2071,-8.2064,-8.2161,-8.2172,-8.2206,-8.2384,-8.2389,-8.2224,-8.223,-8.2235,-8.2238,0,0,0,0,0,0,0,-8.1876,-8.1897,-8.2118,-8.2045,-8.2043,-8.2015,-8.2026,-8.2142,-8.2147,-8.2068,-8.206,-8.2075,-8.2159,-8.2197,-8.2208,-8.239,-8.2224,-8.2233,-8.2239,-8.2243,-8.2727,-8.2733,0,0,0,0,0,0,-8.1872,-8.1891,-8.2114,-8.2121,-8.1945,-8.2026,-8.2038,-8.2096,-8.2146,-8.2147,-8.208,-8.207,-8.2182,-8.2196,-8.2211,-8.2433,-8.2235,-8.2244,-8.225,-8.272,-8.2728,-8.2736,0,0,0,0,0,0,-8.1866,-8.1893,-8.211,-8.2004,-8.203,-8.2038,-8.2104,-8.2102,-8.2139,-8.2155,-8.2155,-8.2118,-8.2178,-8.2197,-8.2339,-8.2435,-8.2249,-8.2258,-8.2712,-8.2722,-8.2732,-8.2879,0,0,0,0,0,0,-8.1858,-8.1892,-8.1964,-8.2007,-8.2036,-8.2238,-8.211,-8.2108,-8.2158,-8.2145,-8.2191,-8.2192,-8.2175,-8.2324,-8.2349,-8.2446,-8.2266,-8.2703,-8.2717,-8.2729,-8.2866,-8.2893,-8.2916,0,0,0,0,0,-8.1847,-8.2,-8.1969,-8.1996,-8.2127,-8.2244,-8.2261,-8.2239,-8.2166,-8.2238,-8.2248,-8.2191,-8.2421,-8.234,-8.2366,-8.2468,-8.2697,-8.2713,-8.2728,-8.2854,-8.2888,-8.2916,0,0,0,0,0,0,-8.1966,-8.2005,-8.1971,-8.2142,-8.2191,-8.2226,-8.2317,-8.2275,-8.2344,-8.2329,-8.2297,-8.2308,-8.2458,-8.2476,-8.2386,-8.2651,-8.2547,-8.2568,-8.2634,-8.2666,-8.2691,-8.2683,-8.2274,0,0,0,0,0,-8.2013,-8.2107,-8.2134,-8.2283,-8.231,-8.231,-8.2359,-8.2339,-8.2387,-8.2406,-8.2427,-8.2474,-8.2557,-8.2612,-8.2689,-8.2867,-8.2875,-8.295,-8.2975,-8.2996,-8.3015,-8.3111,-8.3144,-8.2786,-8.2786,-8.2785,0,0,-8.211,-8.2142,-8.2203,-8.2308,-8.2343,-8.244,-8.2327,-8.2434,-8.2504,-8.2422,-8.2558,-8.2574,-8.2625,-8.2786,-8.2858,-8.2806,-8.3116,-8.3016,-8.3032,-8.304,-8.313,-8.3164,-8.3194,-8.2796,-8.2794,-8.2793,0,0,-8.2336,-8.237,-8.2498,-8.2536,-8.2592,-8.2591,-8.2621,-8.2664,-8.2672,-8.2809,-8.2749,-8.283,-8.2974,-8.3012,-8.305,-8.3291,-8.324,-8.3316,-8.3449,-8.3543,-8.3571,-8.3596,-8.3682,-8.3713,-8.3335,-8.3335,-8.3335,0,-8.2449,-8.2594,-8.2569,-8.268,-8.2727,-8.2659,-8.2787,-8.2824,-8.2902,-8.2935,-8.2876,-8.3055,-8.3084,-8.3253,-8.3312,-8.3345,-8.3378,-8.3311,-8.3569,-8.3594,-8.3617,-8.3698,-8.3731,-8.3344,-8.3343,-8.3342,-8.3341,0,-8.2729,-8.283,-8.2927,-8.3006,-8.3063,-8.3183,-8.3174,-8.3235,-8.3209,-8.3213,-8.3352,-8.3384,-8.3467,-8.3505,-8.3479,-8.367,-8.3637,-8.3574,-8.3469,-8.366,-8.3736,-8.3767,-8.3357,-8.3354,-8.3351,-8.3349,0,0,-8.3035,-8.3099,-8.3135,-8.317,-8.3226,-8.3302,-8.3417,-8.35,-8.3553,-8.3607,-8.3703,-8.3825,-8.3768,-8.3812,-8.3789,-8.3871,-8.406,-8.3799,-8.3799,-8.3847,-8.4272,-8.432,-8.4356,-8.4026,-8.4032,-8.4037,-8.4268,0,-8.3263,-8.3466,-8.3447,-8.3639,-8.3732,-8.3667,-8.3767,-8.3811,-8.3818,-8.3896,-8.3901,-8.399,-8.3907,-8.3933,-8.4011,-8.4021,-8.4145,-8.4003,-8.4113,-8.4117,-8.4104,-8.4396,-8.4446,-8.4663,-8.4297,-8.4302,-8.4306,0,-8.3557,-8.3625,-8.3828,-8.387,-8.3907,-8.3998,-8.4072,-8.4148,-8.4195,-8.4194,-8.4244,-8.4207,-8.432,-8.4213,-8.4368,-8.4272,-8.4315,-8.4326,-8.4334,-8.4344,-8.4224,-8.4414,-8.4732,-8.4765,-8.4353,-8.4349,-8.4345,0,-8.3761,-8.3902,-8.4042,-8.4073,-8.4126,-8.4191,-8.4215,-8.4257,-8.4308,-8.4371,-8.4404,-8.4479,-8.452,-8.4578,-8.4562,-8.4485,-8.4721,-8.4612,-8.4723,-8.4724,-8.4776,-8.4773,-8.5106,-8.4803,-8.4803,-8.4802,-8.4801,0,-8.4019,-8.4145,-8.4134,-8.422,-8.4359,-8.4334,-8.4471,-8.4487,-8.4525,-8.4611,-8.4558,-8.4639,-8.4613,-8.4692,-8.468,-8.4811,-8.4829,-8.483,-8.4826,-8.4836,-8.4836,-8.4865,-8.4849,-8.4811,-8.4809,-8.4807,-8.4806,0,-8.427,-8.4268,-8.4416,-8.4454,-8.4466,-8.4567,-8.4598,-8.4677,-8.4679,-8.4789,-8.4813,-8.4816,-8.4907,-8.4897,-8.4997,-8.4989,-8.5151,-8.5128,-8.5136,-8.5131,-8.5243,-8.5233,-8.5606,-8.5654,-8.532,-8.5323,-8.5326,0,-8.4435,-8.4531,-8.458,-8.4635,-8.4665,-8.4754,-8.4806,-8.4784,-8.484,-8.4902,-8.4974,-8.506,-8.5128,-8.5276,-8.5286,-8.5362,-8.5341,-8.5466,-8.5352,-8.5359,-8.5343,-8.5338,-8.5347,-8.5489,-8.5493,-8.5496,-8.5498,0,-8.4729,-8.4724,-8.4802,-8.4881,-8.4945,-8.5005,-8.5059,-8.5107,-8.509,-8.5155,-8.5249,-8.5302,-8.5405,-8.5491,-8.5564,-8.5585,-8.554,-8.5534,-8.5564,-8.5576,-8.5577,-8.5579,-8.5199,-8.5526,-8.5523,-8.5521,-8.552,-8.5519,-8.4943,-8.5026,-8.5073,-8.5162,-8.5201,-8.5253,-8.533,-8.5343,-8.5421,-8.5506,-8.5487,-8.5592,-8.5635,-8.5728,-8.5758,-8.5838,-8.5792,-8.5835,-8.5846,-8.5857,-8.5871,-8.5564,-8.5851,-8.585,-8.5849,-8.5849,-8.5848,0,-8.5235,-8.5262,-8.5345,-8.5424,-8.5493,-8.5445,-8.5503,-8.5564,-8.5658,-8.5703,-8.5772,-8.5879,-8.5962,-8.5978,-8.6057,-8.6118,-8.6099,-8.6139,-8.6135,-8.6141,-8.5907,-8.5874,-8.6154,-8.6154,-8.6153,-8.6153,-8.6153,-8.6153,-8.5395,-8.5532,-8.5532,-8.5687,-8.5713,-8.5818,-8.5854,-8.5901,-8.5938,-8.606,-8.613,-8.6141,-8.6174,-8.6255,-8.6328,-8.633,-8.6362,-8.6411,-8.6406,-8.6188,-8.6157,-8.6128,-8.6097,-8.6418,-8.6419,-8.6632,-8.6634,-8.6636]}]]